Wind_Speed
7 8 8 8 9 9 9 9 9 10 11 11 11 11 12 12 13 14 15 16 16 17 17 17 18 18 17 18 18 16 16 16 17 17 17 18 19 20 21 21 21 21 21 21
8 9 8 8 9 9 10 10 10 11 11 12 12 12 12 12 13 15 16 16 17 17 17 17 17 18 18 17 17 16 16 17 17 17 18 19 20 21 21 21 21 21 21 22
9 9 9 9 9 10 10 10 11 12 11 12 12 12 12 13 13 14 15 16 17 17 17 18 18 18 18 17 17 17 17 17 18 18 19 20 20 20 20 20 20 21 22 23
9 9 9 9 10 10 11 11 11 11 11 12 11 12 13 14 14 14 15 15 16 17 18 18 18 18 18 18 18 18 18 18 19 19 19 20 19 20 20 19 19 20 20 21
8 9 9 10 10 11 10 11 11 11 11 12 11 12 13 13 14 15 15 16 17 17 18 18 18 18 17 18 18 18 19 19 19 20 20 20 20 19 19 20 20 20 20 20
8 9 9 9 10 10 10 10 10 11 12 12 11 12 13 13 15 15 16 17 17 18 18 19 18 18 18 19 19 19 19 19 19 20 19 19 19 19 20 20 20 20 20 20
8 9 9 9 9 9 9 9 10 11 11 12 13 12 13 14 15 15 16 17 18 19 19 19 18 18 19 19 19 18 18 18 18 18 18 19 19 19 19 20 20 20 20 20
7 9 9 9 9 9 9 9 9 10 11 12 13 13 13 14 15 16 16 17 18 19 19 19 18 18 18 18 18 17 18 17 17 18 18 18 18 18 18 19 19 20 20 20
8 9 10 10 9 9 10 10 10 11 11 11 13 14 14 15 16 16 16 16 18 18 18 18 18 17 16 17 17 17 18 18 17 18 18 18 18 18 18 19 20 20 20 20
9 9 10 10 10 10 10 10 10 10 11 11 13 14 14 14 16 16 16 17 17 17 18 18 17 16 16 17 17 17 18 18 17 18 18 18 18 18 19 19 19 19 19 19
9 10 10 10 10 10 10 10 10 10 10 11 13 14 14 15 16 16 16 17 17 16 17 17 17 16 17 17 18 17 18 17 17 18 18 18 18 18 18 18 18 19 19 19
9 10 11 11 11 11 11 11 11 11 11 12 13 14 14 14 15 16 16 16 16 15 16 16 16 16 17 17 17 17 18 18 18 18 18 18 18 17 18 18 18 19 19 19
11 11 11 12 12 12 12 11 12 12 12 12 12 14 14 14 15 15 16 16 15 15 16 17 17 17 16 16 17 17 18 17 17 17 18 18 17 17 18 19 19 19 18 18
13 13 12 13 13 13 13 13 13 12 12 13 12 13 14 14 15 15 16 15 15 15 15 15 15 16 16 16 16 17 17 17 17 18 18 18 17 18 19 19 19 18 18 18
14 14 14 15 14 14 14 14 14 13 13 13 13 14 14 14 15 16 15 15 15 15 15 15 15 16 17 17 17 17 17 17 17 18 18 18 18 19 19 19 18 18 17 17
17 16 16 16 15 15 15 14 14 14 14 14 14 14 15 16 16 15 15 15 15 15 15 15 15 16 17 17 17 18 18 18 18 19 18 18 19 19 19 18 18 17 17 18
18 18 17 17 16 16 15 15 15 14 14 15 15 15 15 16 16 16 15 15 15 15 15 15 16 17 17 18 18 18 19 19 19 19 18 18 19 20 19 19 19 18 18 18
19 18 18 17 17 17 16 15 15 14 14 15 15 15 15 15 16 16 16 16 16 16 16 16 16 17 18 18 18 19 19 20 20 19 19 20 20 20 19 19 18 18 18 18
20 19 19 19 18 19 18 17 16 15 15 15 15 15 15 15 15 15 15 15 15 15 16 16 16 17 18 18 19 19 19 20 19 19 19 19 20 20 19 19 18 17 17 18
21 21 21 21 20 20 19 19 17 16 17 16 15 15 15 15 15 15 14 15 15 16 16 16 17 17 18 18 19 19 20 20 19 19 19 20 20 20 20 19 18 17 17 17
22 22 22 21 21 21 19 19 18 17 17 16 16 15 15 15 16 15 15 16 16 16 16 17 17 18 18 19 19 19 20 20 19 19 20 20 20 20 20 19 18 17 17 18
22 22 22 22 22 21 20 19 19 18 18 17 17 17 16 16 16 16 17 17 17 17 18 18 18 18 19 19 19 20 20 19 19 20 20 20 20 20 20 20 19 19 18 18
23 22 22 22 23 22 22 21 20 20 19 19 19 18 18 18 18 17 18 18 18 18 19 19 19 19 19 19 19 20 20 20 20 20 21 21 21 20 20 20 19 19 19 19
25 24 23 22 23 23 23 23 22 22 21 20 20 19 19 19 19 19 19 19 19 19 19 19 20 20 20 19 20 20 20 20 20 20 20 20 20 20 20 20 20 20 20 20
26 25 24 24 24 24 23 23 23 22 22 21 21 21 21 20 20 20 20 20 20 20 20 20 20 20 20 20 20 20 19 19 20 20 20 20 20 20 20 20 20 20 20 21
27 26 25 25 24 25 24 24 24 23 23 23 22 22 21 21 21 21 21 21 21 21 21 21 21 21 21 20 20 21 20 21 21 21 20 20 20 20 20 20 20 20 21 21
Wind_Direction
244 247 243 244 249 253 264 270 280 291 297 305 308 311 310 305 305 308 312 316 317 315 313 313 313 311 311 310 308 305 301 296 293 291 290 292 291 287 284 283 285 284 282 279
244 247 250 253 258 257 263 272 281 290 295 301 306 310 312 311 308 309 311 316 318 317 314 315 314 313 313 311 309 306 303 300 296 294 293 293 294 292 287 285 287 287 285 282
239 248 253 258 262 266 268 272 281 288 294 300 306 312 312 313 313 313 315 317 320 319 317 315 314 314 312 314 313 309 306 304 300 298 295 294 294 292 289 286 288 287 285 282
244 248 255 262 266 269 272 273 280 290 297 304 307 312 313 313 315 316 319 320 323 322 319 318 317 316 314 314 313 310 308 306 303 301 298 295 294 293 290 288 289 290 291 287
255 258 259 260 265 270 279 279 282 287 294 303 307 307 311 313 314 317 320 323 325 326 324 321 319 319 318 316 315 312 309 309 306 304 302 298 295 294 291 290 290 291 292 290
260 261 265 272 273 276 282 282 283 289 296 299 301 303 308 313 314 317 320 324 326 326 324 322 322 321 321 320 317 315 313 312 310 306 305 301 297 296 295 294 293 293 294 292
269 267 268 273 279 279 278 287 298 302 300 294 297 296 304 310 313 317 321 323 323 324 324 323 322 320 320 320 319 318 316 315 312 311 310 305 301 300 299 297 295 294 295 293
271 272 268 270 275 279 281 281 285 288 289 291 298 297 304 307 311 316 319 321 322 323 324 325 324 321 319 321 321 321 321 320 317 317 316 312 308 305 303 301 298 297 297 297
266 268 271 268 269 270 274 277 281 287 292 298 300 302 303 304 309 314 316 318 320 323 324 327 329 327 325 325 325 323 323 323 320 318 317 314 310 307 305 304 303 301 299 299
264 268 273 271 271 272 271 275 280 289 297 299 303 306 310 311 312 314 317 320 321 322 325 330 334 331 329 329 326 324 325 325 322 319 317 314 311 310 309 309 308 306 304 302
267 270 273 275 276 277 277 282 286 288 291 297 298 298 305 308 312 314 318 320 321 322 325 331 331 331 332 329 328 328 328 325 321 318 317 315 313 313 313 312 312 312 309 307
269 272 275 279 280 280 280 284 288 293 298 300 299 299 302 306 310 313 317 318 319 321 325 331 336 334 332 330 330 330 328 325 321 321 319 317 317 318 318 316 313 312 310 307
268 269 275 282 283 281 281 281 284 287 291 298 299 300 301 303 307 310 314 315 315 317 321 326 330 333 332 331 330 330 327 325 324 326 326 324 322 320 319 318 317 313 310 308
266 267 269 274 279 283 282 280 281 284 291 296 296 297 299 302 304 309 313 315 314 314 317 322 325 329 331 331 331 332 331 331 330 331 330 328 325 322 322 319 317 315 313 313
266 268 270 271 272 276 278 279 280 281 285 291 295 299 300 302 305 308 311 313 312 312 314 317 320 323 328 328 328 330 332 331 330 331 331 330 327 324 322 321 318 318 317 316
265 268 272 274 276 277 278 278 281 284 285 287 292 297 300 303 305 306 308 310 311 310 312 314 318 320 323 324 325 326 328 329 330 329 328 327 327 325 322 321 320 320 320 319
265 268 270 273 276 278 277 278 282 286 288 289 292 296 300 303 304 306 307 308 309 308 309 311 316 318 320 322 323 322 324 327 330 329 328 328 328 327 324 322 322 323 323 321
263 266 268 270 272 275 277 277 280 283 286 289 292 295 300 302 304 305 306 307 308 309 309 311 314 315 318 319 320 321 324 326 327 328 327 328 328 329 327 325 323 323 324 324
262 263 265 267 270 273 275 276 278 281 284 287 290 295 298 302 303 304 306 308 309 310 311 313 313 314 315 317 319 320 322 323 324 324 325 327 328 329 329 329 325 325 326 326
261 262 264 265 267 271 273 275 276 279 281 285 289 292 296 299 302 304 306 309 310 310 311 313 313 314 315 317 319 319 319 319 320 320 323 325 327 328 329 329 327 326 329 329
263 263 264 264 265 268 270 272 274 275 279 283 286 290 295 298 299 301 303 305 308 309 309 311 311 311 312 315 316 317 318 317 318 320 323 325 327 329 330 330 330 329 329 331
262 263 263 263 264 266 267 269 271 275 278 280 283 287 291 295 296 296 297 300 304 306 306 308 310 311 312 312 313 315 316 316 316 318 321 324 326 330 332 332 331 329 327 328
259 261 262 262 262 264 265 267 270 272 274 276 280 283 287 290 294 295 295 298 300 302 304 306 309 310 310 312 314 314 314 314 314 316 318 321 322 324 327 330 329 329 328 326
260 260 260 261 262 264 265 266 268 271 272 274 277 280 283 285 288 291 293 296 299 301 303 305 307 310 311 311 313 314 315 314 314 315 317 319 320 321 324 327 328 328 327 326
259 259 259 259 261 262 264 265 266 268 271 273 276 278 280 283 284 287 291 294 297 300 302 303 304 307 308 311 313 314 314 313 314 315 316 318 319 320 322 324 326 326 326 325
257 258 258 259 261 262 263 265 266 269 270 271 273 274 276 278 280 283 287 290 293 296 298 299 301 303 305 308 311 313 313 313 313 314 315 315 318 320 322 324 325 325 325 326
Height
5860 5862 5862 5863 5863 5864 5864 5864 5864 5863 5862 5861 5859 5857 5855 5853 5851 5849 5846 5843 5841 5838 5835 5833 5830 5828 5826 5823 5821 5819 5817 5815 5814 5812 5811 5810 5808 5807 5805 5804 5803 5801 5800 5798
5859 5860 5861 5861 5861 5861 5862 5862 5862 5861 5860 5859 5857 5855 5853 5850 5848 5846 5844 5841 5838 5835 5832 5830 5827 5825 5822 5819 5817 5815 5813 5811 5809 5808 5806 5805 5803 5801 5800 5798 5797 5796 5794 5793
5857 5858 5858 5858 5858 5859 5859 5859 5859 5858 5857 5856 5854 5853 5850 5848 5845 5843 5841 5838 5835 5832 5830 5827 5824 5821 5818 5816 5813 5811 5809 5806 5805 5803 5801 5800 5798 5796 5795 5793 5792 5790 5788 5787
5854 5855 5855 5856 5856 5856 5856 5856 5856 5855 5854 5853 5853 5851 5848 5845 5843 5841 5838 5836 5833 5830 5827 5824 5821 5818 5815 5812 5809 5807 5804 5802 5800 5798 5796 5794 5793 5791 5790 5788 5786 5785 5782 5781
5852 5852 5853 5853 5853 5853 5853 5853 5853 5852 5852 5851 5849 5848 5847 5843 5841 5838 5836 5833 5830 5827 5824 5820 5817 5814 5811 5808 5805 5802 5800 5797 5795 5793 5791 5789 5787 5786 5784 5783 5781 5779 5777 5775
5850 5850 5850 5850 5850 5851 5851 5851 5850 5850 5849 5848 5847 5846 5844 5841 5838 5836 5833 5830 5827 5824 5821 5817 5814 5810 5807 5804 5801 5798 5795 5793 5790 5788 5786 5784 5782 5780 5779 5777 5776 5774 5772 5770
5849 5848 5848 5848 5848 5848 5848 5849 5849 5848 5847 5846 5844 5843 5842 5838 5835 5833 5830 5827 5824 5821 5818 5814 5811 5807 5804 5801 5798 5795 5792 5789 5786 5783 5781 5779 5777 5775 5774 5772 5770 5769 5767 5764
5847 5847 5846 5846 5846 5846 5846 5847 5848 5848 5847 5844 5841 5840 5839 5835 5833 5830 5828 5825 5821 5818 5814 5811 5807 5804 5801 5798 5795 5792 5788 5785 5783 5780 5777 5775 5773 5771 5769 5767 5765 5763 5761 5758
5846 5845 5844 5844 5843 5843 5843 5843 5843 5843 5842 5841 5839 5837 5835 5832 5830 5827 5825 5822 5819 5815 5812 5808 5805 5801 5798 5795 5792 5789 5786 5782 5779 5777 5774 5772 5769 5767 5765 5762 5760 5757 5755 5752
5843 5843 5842 5841 5841 5841 5841 5840 5840 5839 5839 5838 5837 5834 5832 5829 5827 5824 5821 5819 5816 5812 5809 5806 5802 5799 5796 5793 5790 5786 5783 5779 5776 5774 5771 5768 5765 5763 5760 5757 5755 5752 5749 5747
5840 5841 5840 5840 5839 5838 5838 5837 5836 5836 5835 5835 5834 5834 5829 5826 5824 5821 5818 5815 5812 5810 5807 5803 5800 5797 5793 5790 5787 5784 5780 5777 5774 5771 5768 5765 5762 5759 5756 5753 5751 5748 5745 5742
5838 5838 5837 5837 5836 5835 5835 5834 5833 5833 5832 5831 5830 5831 5825 5823 5820 5818 5815 5812 5810 5807 5804 5801 5798 5794 5791 5787 5784 5781 5778 5774 5771 5768 5764 5761 5758 5755 5752 5750 5747 5743 5740 5737
5835 5835 5835 5834 5835 5833 5831 5831 5830 5830 5829 5828 5827 5827 5822 5820 5817 5815 5812 5810 5807 5805 5802 5799 5795 5792 5789 5785 5782 5779 5775 5772 5768 5765 5761 5758 5755 5752 5749 5746 5743 5739 5736 5733
5831 5831 5832 5832 5831 5829 5828 5828 5827 5826 5825 5824 5823 5821 5819 5816 5814 5812 5810 5807 5805 5802 5799 5796 5793 5790 5787 5784 5780 5777 5773 5770 5766 5763 5759 5756 5753 5750 5746 5742 5739 5735 5732 5729
5827 5827 5827 5827 5826 5825 5824 5823 5823 5822 5821 5821 5819 5817 5815 5813 5811 5809 5807 5805 5802 5800 5797 5794 5791 5788 5785 5782 5778 5775 5771 5768 5764 5761 5757 5754 5750 5747 5743 5739 5736 5732 5728 5725
5823 5823 5823 5822 5821 5820 5820 5819 5818 5818 5817 5816 5815 5814 5812 5809 5807 5805 5803 5801 5799 5796 5794 5791 5789 5786 5783 5780 5776 5772 5769 5765 5762 5758 5754 5751 5747 5743 5740 5736 5732 5728 5725 5721
5818 5818 5818 5818 5817 5816 5816 5815 5814 5814 5813 5812 5811 5811 5808 5806 5804 5802 5800 5798 5796 5793 5791 5788 5786 5783 5780 5777 5773 5770 5766 5763 5759 5755 5751 5748 5744 5740 5736 5732 5729 5725 5721 5718
5813 5813 5813 5813 5813 5812 5814 5811 5811 5810 5809 5808 5807 5806 5804 5802 5800 5798 5796 5794 5792 5790 5787 5785 5782 5779 5777 5773 5770 5767 5763 5760 5756 5752 5748 5745 5741 5737 5733 5729 5725 5722 5718 5714
5807 5808 5808 5808 5807 5807 5808 5807 5806 5806 5805 5804 5803 5802 5800 5798 5796 5794 5793 5790 5788 5786 5784 5781 5778 5776 5773 5770 5767 5763 5760 5756 5752 5749 5745 5742 5738 5734 5730 5726 5722 5718 5715 5711
5801 5802 5803 5802 5802 5802 5803 5801 5801 5802 5800 5800 5799 5798 5796 5794 5793 5791 5789 5787 5785 5782 5780 5777 5775 5772 5769 5766 5763 5760 5756 5753 5749 5745 5742 5738 5734 5730 5726 5723 5719 5715 5711 5708
5795 5795 5796 5796 5796 5796 5796 5796 5796 5797 5797 5795 5794 5793 5792 5790 5789 5788 5785 5783 5781 5779 5776 5774 5771 5768 5765 5763 5759 5756 5752 5749 5745 5742 5738 5735 5731 5727 5723 5719 5716 5712 5708 5705
5788 5789 5789 5790 5790 5792 5790 5790 5791 5791 5790 5789 5789 5788 5787 5786 5784 5783 5781 5779 5777 5775 5772 5770 5767 5764 5761 5758 5755 5752 5748 5745 5742 5738 5735 5731 5728 5724 5720 5716 5712 5709 5705 5702
5781 5782 5782 5784 5785 5783 5783 5783 5784 5784 5784 5784 5783 5782 5782 5781 5779 5778 5776 5774 5772 5770 5768 5766 5763 5760 5757 5754 5751 5748 5744 5741 5738 5734 5731 5727 5724 5720 5716 5713 5709 5705 5701 5698
5773 5774 5775 5776 5776 5776 5776 5776 5777 5777 5777 5777 5777 5776 5776 5775 5774 5773 5771 5769 5767 5765 5763 5761 5758 5756 5753 5750 5746 5743 5740 5737 5734 5730 5727 5723 5720 5716 5713 5709 5705 5702 5698 5693
5765 5766 5767 5768 5769 5769 5769 5769 5770 5770 5770 5771 5770 5770 5770 5769 5768 5767 5766 5764 5762 5760 5758 5756 5754 5751 5748 5745 5742 5739 5735 5732 5729 5726 5723 5719 5716 5712 5709 5705 5701 5697 5694 5689
5757 5758 5760 5760 5761 5762 5762 5762 5763 5763 5763 5763 5763 5763 5763 5762 5762 5761 5760 5758 5757 5755 5753 5750 5748 5746 5743 5740 5737 5734 5731 5728 5725 5722 5719 5715 5712 5708 5705 5701 5697 5693 5689 5685